Location: Copeville
(33.0796°N, 96.4155°W)
Time: 12:53:36
(UTC+00:00)

SEEDS - Pass Details

Date: 05 April 2023
Orbit: 568 x 587 km, 97.7° (Epoch: 29 May)

Event Time Altitude Azimuth Distance (km) Brightness Sun altitude
Rises 09:43:52 0° 23° (NNE) 2,827 ? -29.4°
Reaches altitude 10° 09:46:14 10° 34° (NE) 1,921 ? -29.0°
Maximum altitude 09:49:58 31° 98° (E) 1,032 ? -28.3°
Enters shadow 09:50:35 30° 115° (ESE) 1,065 ? -28.2°
